Weather in Lodeynoye

Russia / Arkhangel'skaya Oblast'     61°15′21″N   41°22′28″E
temp.,
°C
wind,
m/s
gust,
m/s
humid.,
%
clouds,
%
prec.,
mm/h
press.,
hPa
HPBL,
m
5 march, fri
fri500:00−10wnw3895100 0.2 998296
03:00−13n259599 0.3 999160
06:00−18nnw239468 0.0 100127
09:00−15nw259565 0.0 1003203
12:00−12nw368792 0.1 1004769
15:00−11nw368697 0.1 1006812
18:00−13nw2794100 0.1 1007351
21:00−17nw239795 0.1 100927
6 march, sat
sat600:00−18wnw239855 0.0 101032
03:00−20wnw239966 0.1 101255
06:00−21wnw239818 0.0 101244
09:00−18w259742 0.0 1012188
12:00−12w249290 0.0 1011358
15:00−10wsw358894 0.1 1009605
18:00−13ssw239698 0.0 100778
21:00−16ssw269888 0.1 1005135
7 march, sun
sun700:00−15s399893 0.0 1002213
03:00−13sse4119496 0.1 999379
06:00−11sse51194100 0.3 995613
09:00−11sse51094100 1.2 994607
12:00−9se5993100 0.8 994652
15:00−8ese4893100 1.4 993716
18:00−9e4994100 0.4 994501
21:00−10e41094100 0.8 995468
8 march, mon
mon800:00−11ene41094100 0.2 995509
03:00−12ne41093100 0.3 997517
06:00−13ne51192100 0.2 998556
09:00−14ne51091100 0.4 999617
12:00−13nne5990100 0.1 1001666
15:00−12nne51092100 0.5 1003655
18:00−15nne51192100 0.2 1006608
21:00−18n4994100 0.3 1008468
9 march, tue
tue900:00−23n3897100 0.0 1010251
03:00−26n379896 0.0 1012173
06:00−28n379735 0.0 1014150
09:00−26n359628 0.0 1015223
12:00−21n249459 0.0 1016335
15:00−19n359275 0.0 1017475
18:00−23nnw2397100 0.0 101771
21:00−27nne239877 0.0 101931